SENTINEL-1A (39634 NORAD) Tracking and Keplerian Element Data

This shows tracking and keplerian element data for the satellite.

Feedback or suggestion? Click here.




ElementValue
Catalog39634
NameSENTINEL-1A
Epoch Orbit24653
Epoch Day323.23600095
Epoch Year2018
RAAN328.4592
Inclination98.1822
Eccentricity0.0001282
Argument of Perigee76.8429
Mean Anonmoly283.2917
Mean Motion14.59198919
Decay Rate-3.7E-07
L11 39634U 14016A 18323.23600095 -.00000037 00000-0 18414-5 0 9993
L22 39634 98.1822 328.4592 0001282 76.8429 283.2917 14.59198919246537

Live tracking and technical data element details for SENTINEL-1A (NORAD 39634). SENTINEL-1A can be tracked NOW for your location showing map with azimuth and elevation plus other details from your city location.

Track the satellite on the map from your city or location and see movement details for azimuth, elevation, latitude, longitude, range, height, and movement on the map or in text.







IsCatalogInMostPopularTable: catalog: 39634, numindb: 108
Update: records affected: 1



GetName: 39634 SENTINEL-1A

Hit Count: updated at: Mon, 19 Nov 2018 11:02:11 GMT